Tracking 30743 objects as of 20-Jun-2025
HD Live streaming from Space Station
objects crossing your sky now

ARIANE 5 R/B

Track ARIANE 5 R/B now!


NORAD ID: 27462
Int'l Code: 2002-035C
Perigee: 656.4 km
Apogee: 36,139.2 km
Inclination: 5.2 °
Period: 646.6 minutes
Semi major axis: 24768 km
RCS: 26.2715 m2 (large)
Launch date: July 5, 2002
Source: France (FR)
Launch site: FRENCH GUIANA (FRGUI)

Note: This is a ROCKET BODY
Your satellite tracking list
Your tracking list is empty




NASA's NSSDC Master Catalog

Two Line Element Set (TLE):
1 27462U 02035C   25170.85718949 -.00000112  00000-0 -12245-2 0  9999
2 27462   5.2355 241.2209 7162787 162.1744  93.5738  2.22712361186866
Source of the keplerian elements: AFSPC